EW0538 Weather Reports


time (UTC)temp
F
wind
direction
speed
knots
gust
knots
rain 1hr
in
rain 24hr
in
rain mn
in
humidity
%
barometer
mb
20260901143852 55 12 0.0 0.0 0.00 0.17 0.00 96 1015.9
20260901142850 55 321 0.0 0.0 0.00 0.17 0.00 96 1016.0
20260901141910 55 129 0.0 0.0 0.00 0.17 0.00 97 1016.1
20260901140912 54 129 0.0 0.0 0.00 0.17 0.00 97 1016.1
20260901134842 54 128 0.0 0.0 0.00 0.17 0.00 97 1016.1
20260901133817 54 128 0.0 0.0 0.00 0.17 0.00 98 1016.2
20260901132813 54 129 0.0 0.0 0.00 0.17 0.00 97 1016.3
20260901131821 53 128 0.0 0.0 0.00 0.17 0.00 97 1016.1
20260901130801 53 129 0.0 0.0 0.00 0.17 0.00 97 1016.1
20260901125807 53 148 0.0 0.0 0.00 0.17 0.00 97 1015.9
20260901124812 53 151 0.0 0.9 0.00 0.17 0.00 97 1015.8
20260901123746 53 117 0.0 0.9 0.00 0.17 0.00 97 1015.8
20260901122732 53 243 0.0 0.0 0.00 0.17 0.00 97 1015.7
20260901121745 53 243 0.0 0.0 0.00 0.17 0.00 97 1015.7
20260901120711 53 187 0.0 0.9 0.00 0.17 0.00 97 1015.5
20260901112352 53 148 0.0 0.0 0.00 0.17 0.00 97 1015.1
20260901111336 53 148 0.0 0.0 0.00 0.17 0.00 97 1015.0
20260901110332 52 148 0.0 0.0 0.00 0.17 0.00 97 1015.0
20260901105354 52 148 0.0 0.0 0.00 0.17 0.00 97 1015.0
20260901104415 52 148 0.0 0.0 0.00 0.17 0.00 97 1014.9
20260901103416 52 148 0.0 0.0 0.00 0.17 0.00 97 1015.1
20260901102352 52 148 0.0 0.0 0.00 0.17 0.00 97 1014.9
20260901101354 52 148 0.0 0.0 0.00 0.17 0.00 97 1014.9
20260901100417 52 148 0.0 0.0 0.00 0.17 0.00 97 1014.8
20260901095353 52 148 0.0 0.0 0.00 0.17 0.00 97 1014.7
20260901093250 53 148 0.0 0.0 0.00 0.17 0.00 97 1014.7
20260901092225 53 148 0.0 0.0 0.00 0.17 0.00 97 1014.6
20260901091207 54 148 0.0 0.0 0.00 0.17 0.00 97 1014.5
20260901090345 54 148 0.0 0.0 0.00 0.16 0.00 97 1014.7
20260901085353 54 148 0.0 0.0 0.00 0.16 0.00 97 1014.6
20260901084320 54 148 0.0 0.0 0.00 0.16 0.00 97 1014.6
20260901082127 55 148 0.0 0.0 0.00 0.16 0.00 96 1015.0
20260901075937 55 148 0.0 0.0 0.00 0.16 0.00 97 1015.2
20260901074959 55 153 0.0 0.9 0.00 0.16 0.00 97 1015.3
20260901074017 55 325 0.0 0.0 0.00 0.16 0.00 97 1015.3
20260901072945 55 325 0.0 0.0 0.00 0.16 0.00 97 1015.2
20260901071955 55 325 0.0 0.0 0.00 0.16 0.00 97 1015.5
20260901070938 55 325 0.0 0.0 0.00 0.16 0.00 96 1015.5
20260901065913 55 325 0.0 0.0 0.00 0.16 0.00 96 1015.5
20260901064917 55 325 0.0 0.0 0.00 0.16 0.00 96 1015.4
20260901063927 55 107 0.0 0.0 0.00 0.16 0.00 96 1015.5
20260901062923 56 107 0.0 0.0 0.00 0.16 0.00 96 1015.4
20260901061901 56 108 0.0 0.0 0.00 0.16 0.00 96 1015.4
20260901060923 55 354 0.0 0.0 0.00 0.16 0.00 96 1015.6
20260901055901 56 354 0.0 0.0 0.00 0.16 0.17 96 1015.5
20260901054843 56 354 0.0 0.0 0.00 0.16 0.17 96 1015.5
20260901053856 56 354 0.0 0.0 0.00 0.16 0.17 96 1015.4
20260901052843 56 354 0.0 0.0 0.00 0.16 0.17 96 1015.3
20260901051813 56 354 0.0 0.0 0.00 0.16 0.17 95 1015.1
20260901044506 57 354 0.0 0.0 0.00 0.16 0.17 95 1015.1
20260901043441 57 354 0.0 0.0 0.00 0.16 0.17 95 1015.4
20260901042505 57 354 0.0 0.0 0.00 0.16 0.17 95 1015.3
20260901040317 58 354 0.0 0.0 0.00 0.16 0.17 95 1015.8
20260901035243 58 354 0.0 0.0 0.00 0.16 0.17 95 1015.7
20260901034222 58 354 0.0 0.0 0.00 0.16 0.17 95 1015.6
20260901033217 58 354 0.0 0.0 0.00 0.16 0.17 94 1015.7
20260901031117 58 354 0.0 0.0 0.00 0.16 0.17 94 1015.4
20260901030121 58 354 0.0 0.0 0.00 0.16 0.17 94 1015.2
20260901025116 58 354 0.0 0.0 0.00 0.16 0.17 93 1015.0
20260901024106 58 354 0.0 0.0 0.00 0.19 0.17 93 1014.9
20260901023051 58 354 0.0 0.0 0.00 0.24 0.17 93 1014.7
20260901022028 58 354 0.0 0.0 0.00 0.29 0.17 92 1014.6
20260901021008 58 354 0.0 0.0 0.00 0.32 0.17 92 1014.3
20260901020020 59 354 0.0 0.0 0.00 0.37 0.17 91 1014.3
20260901013846 59 359 0.0 0.0 0.00 0.41 0.17 92 1014.5
20260901012813 59 0 0.0 0.0 0.00 0.42 0.17 92 1014.5
20260901011810 59 281 0.0 0.0 0.00 0.42 0.17 90 1014.6
20260901005644 60 263 0.0 0.0 0.00 0.42 0.17 88 1014.6
20260901004617 60 234 0.0 0.9 0.00 0.42 0.17 89 1014.7
20260901003641 60 321 0.0 0.0 0.00 0.42 0.17 90 1014.7
20260901002702 60 321 0.0 0.0 0.00 0.42 0.17 89 1014.8
20260901001635 60 321 0.0 0.0 0.00 0.42 0.17 87 1015.0
20260901000637 61 322 0.0 0.0 0.00 0.42 0.17 85 1015.0
20260831235627 61 321 0.0 0.0 0.00 0.42 0.17 88 1015.1
20260831232443 60 321 0.0 0.0 0.00 0.42 0.17 89 1015.2
20260831231436 60 340 0.0 0.0 0.00 0.42 0.17 90 1015.5
20260831230453 60 340 0.0 0.0 0.00 0.42 0.17 90 1015.7
20260831225453 60 340 0.0 0.0 0.00 0.42 0.17 92 1015.6
20260831224435 59 340 0.0 0.9 0.00 0.42 0.17 91 1015.7
20260831223401 59 153 0.0 0.0 0.00 0.42 0.17 93 1015.9
20260831221258 58 125 0.0 3.5 0.10 0.42 0.17 91 1016.2
20260831220247 58 4 0.0 1.7 0.18 0.40 0.16 91 1016.3
20260831215307 59 161 0.9 6.1 0.10 0.38 0.13 86 1016.5
20260831214310 59 136 1.7 7.0 0.21 0.35 0.10 84 1016.5
20260831212235 61 156 2.6 10.4 0.06 0.30 0.05 83 1016.6
20260831210125 65 115 0.9 3.5 0.00 0.28 0.03 79 1015.7
20260831205119 66 160 0.0 1.7 0.00 0.28 0.03 81 1015.4
20260831201801 71 355 1.7 10.4 0.00 0.26 0.01 57 1015.0
20260831200801 73 316 2.6 10.4 0.00 0.25 0.00 51 1014.8
20260831195756 74 27 2.6 8.7 0.00 0.25 0.00 51 1014.6
20260831193640 73 39 1.7 6.1 0.00 0.25 0.00 50 1014.8
20260831192642 74 22 0.0 1.7 0.00 0.25 0.00 51 1015.0
20260831191621 73 346 0.0 3.5 0.00 0.25 0.00 50 1015.1
20260831190548 72 15 0.0 1.7 0.00 0.25 0.00 52 1015.4
20260831185545 72 262 0.0 0.0 0.00 0.27 0.00 55 1015.5
20260831184552 70 333 0.0 0.0 0.00 0.32 0.00 55 1015.8
20260831183539 69 343 0.0 0.9 0.00 0.32 0.00 58 1016.2
20260831182513 69 342 0.0 1.7 0.00 0.34 0.00 58 1016.4
20260831181505 68 314 0.0 0.0 0.00 0.39 0.00 62 1016.8
20260831180433 68 96 0.0 0.0 0.00 0.39 0.00 64 1016.9
20260831175435 67 100 0.0 0.0 0.00 0.39 0.00 64 1017.1
20260831174416 65 336 0.0 0.0 0.00 0.39 0.00 67 1017.4
20260831173429 65 20 0.0 0.9 0.00 0.39 0.00 68 1017.4
20260831172452 65 148 0.0 0.0 0.00 0.39 0.00 69 1017.6
20260831171456 64 274 0.0 0.0 0.00 0.39 0.00 69 1017.7
20260831170442 63 323 0.0 0.0 0.00 0.39 0.00 71 1017.9
20260831165437 61 323 0.0 0.0 0.00 0.39 0.00 73 1018.0
20260831164422 62 15 0.0 0.9 0.00 0.39 0.00 72 1018.1
20260831163358 61 6 0.0 0.9 0.00 0.39 0.00 74 1017.9
20260831162353 62 71 0.0 0.0 0.00 0.39 0.00 77 1018.1
20260831161342 61 134 0.0 0.0 0.00 0.39 0.00 76 1017.9
20260831160359 60 123 0.0 0.0 0.00 0.39 0.00 80 1017.7
20260831155349 59 8 0.0 0.0 0.00 0.39 0.00 83 1017.6
20260831154349 58 8 0.0 0.0 0.00 0.39 0.00 84 1017.7
20260831152215 56 8 0.0 0.0 0.00 0.39 0.00 90 1017.9
20260831151146 56 8 0.0 0.9 0.00 0.39 0.00 93 1018.2
20260831150133 55 11 0.0 0.9 0.00 0.39 0.00 95 1018.2
20260831145132 55 70 0.0 0.0 0.00 0.39 0.00 97 1018.3
20260831144140 53 22 0.0 0.0 0.00 0.39 0.00 97 1018.4